GFSMA_prec_precacc6_096.txt.gz
Total_Precipitation_Accumulation
0.04 0.03 0.02 0.01 0.02 0.01 0.06 0.18 0.37 0.41 0.37 0.30 0.27 0.15 0.03 0.02 0.00 0.00 0.00 0.00 0.00 0.00 0.00 0.00 0.00 0.01 0.00 0.01 0.01 0.00 0.00 0.00 0.00 0.00 0.00 0.00 0.00 0.00 0.00 0.00 0.00 0.00 0.00
0.03 0.02 0.01 0.00 0.03 0.03 0.08 0.19 0.44 0.47 0.43 0.27 0.27 0.12 0.01 0.02 0.01 0.00 0.00 0.00 0.00 0.01 0.00 0.01 0.01 0.01 0.01 0.01 0.01 0.00 0.00 0.00 0.00 0.00 0.00 0.00 0.00 0.00 0.00 0.00 0.00 0.00 0.00
0.04 0.03 0.04 0.02 0.03 0.03 0.06 0.21 0.42 0.61 0.48 0.31 0.17 0.10 0.03 0.02 0.00 0.00 0.00 0.00 0.00 0.00 0.00 0.01 0.01 0.01 0.01 0.01 0.01 0.00 0.00 0.00 0.00 0.00 0.00 0.00 0.00 0.00 0.00 0.00 0.00 0.00 0.00
0.04 0.03 0.05 0.12 0.19 0.09 0.06 0.13 0.32 0.69 0.42 0.21 0.14 0.14 0.04 0.00 0.00 0.00 0.00 0.00 0.00 0.00 0.01 0.01 0.01 0.01 0.01 0.01 0.00 0.00 0.00 0.00 0.00 0.00 0.00 0.00 0.00 0.00 0.00 0.00 0.00 0.00 0.00
0.03 0.05 0.08 0.12 0.27 0.25 0.17 0.15 0.26 0.42 0.36 0.21 0.14 0.06 0.01 0.00 0.00 0.00 0.00 0.00 0.00 0.00 0.00 0.00 0.00 0.00 0.01 0.01 0.00 0.00 0.00 0.00 0.00 0.00 0.00 0.00 0.00 0.00 0.00 0.00 0.00 0.00 0.00
0.02 0.04 0.11 0.21 0.11 0.17 0.12 0.12 0.20 0.33 0.23 0.18 0.25 0.04 0.00 0.00 0.00 0.00 0.00 0.00 0.00 0.00 0.00 0.00 0.00 0.00 0.00 0.00 0.00 0.00 0.00 0.00 0.00 0.00 0.00 0.00 0.00 0.00 0.00 0.00 0.00 0.00 0.00
0.01 0.03 0.06 0.17 0.31 0.22 0.16 0.10 0.15 0.29 0.32 0.14 0.17 0.04 0.02 0.00 0.00 0.00 0.00 0.00 0.00 0.00 0.00 0.00 0.00 0.00 0.00 0.00 0.00 0.00 0.00 0.00 0.00 0.00 0.00 0.00 0.00 0.00 0.00 0.00 0.00 0.00 0.00
0.01 0.02 0.03 0.06 0.13 0.35 0.44 0.25 0.14 0.21 0.24 0.17 0.09 0.01 0.03 0.02 0.01 0.00 0.00 0.00 0.00 0.00 0.00 0.00 0.00 0.00 0.00 0.00 0.00 0.00 0.00 0.00 0.00 0.00 0.00 0.00 0.00 0.00 0.00 0.00 0.00 0.00 0.00
0.02 0.03 0.04 0.04 0.06 0.16 0.31 0.25 0.14 0.12 0.13 0.14 0.11 0.00 0.00 0.01 0.01 0.00 0.00 0.00 0.00 0.00 0.00 0.00 0.00 0.00 0.00 0.00 0.00 0.00 0.00 0.00 0.00 0.00 0.00 0.00 0.00 0.00 0.00 0.00 0.00 0.00 0.00
0.04 0.05 0.08 0.14 0.11 0.13 0.28 0.25 0.16 0.13 0.11 0.08 0.06 0.00 0.00 0.00 0.00 0.01 0.00 0.00 0.00 0.00 0.00 0.00 0.00 0.00 0.00 0.00 0.00 0.00 0.00 0.00 0.00 0.00 0.00 0.00 0.00 0.00 0.00 0.00 0.00 0.00 0.00
0.15 0.19 0.11 0.16 0.17 0.14 0.14 0.27 0.22 0.17 0.12 0.06 0.02 0.01 0.00 0.00 0.00 0.00 0.00 0.00 0.00 0.00 0.00 0.00 0.00 0.00 0.00 0.00 0.00 0.00 0.00 0.00 0.00 0.00 0.00 0.00 0.00 0.00 0.01 0.00 0.00 0.00 0.00
0.11 0.24 0.27 0.28 0.17 0.15 0.12 0.17 0.19 0.15 0.08 0.07 0.02 0.01 0.00 0.00 0.01 0.00 0.00 0.00 0.00 0.00 0.00 0.00 0.00 0.00 0.00 0.00 0.00 0.00 0.00 0.00 0.00 0.00 0.00 0.00 0.00 0.00 0.00 0.00 0.00 0.00 0.00
0.06 0.14 0.24 0.33 0.32 0.19 0.12 0.14 0.18 0.17 0.11 0.08 0.04 0.03 0.00 0.00 0.00 0.00 0.00 0.00 0.00 0.00 0.00 0.00 0.00 0.00 0.00 0.00 0.00 0.00 0.00 0.00 0.00 0.00 0.00 0.00 0.00 0.00 0.00 0.00 0.00 0.00 0.00
0.05 0.09 0.19 0.30 0.31 0.31 0.24 0.14 0.17 0.14 0.14 0.11 0.07 0.05 0.02 0.01 0.00 0.00 0.00 0.00 0.01 0.02 0.02 0.01 0.00 0.00 0.00 0.00 0.00 0.00 0.00 0.00 0.00 0.00 0.00 0.00 0.00 0.00 0.00 0.00 0.00 0.00 0.00
0.08 0.11 0.25 0.37 0.43 0.42 0.29 0.19 0.13 0.13 0.11 0.11 0.07 0.07 0.04 0.02 0.01 0.00 0.00 0.00 0.01 0.01 0.00 0.01 0.00 0.00 0.00 0.00 0.00 0.00 0.00 0.00 0.00 0.00 0.00 0.00 0.00 0.00 0.00 0.00 0.00 0.00 0.00
0.13 0.10 0.25 0.39 0.43 0.41 0.35 0.22 0.12 0.10 0.09 0.10 0.07 0.06 0.02 0.02 0.03 0.03 0.02 0.02 0.02 0.03 0.01 0.00 0.00 0.01 0.04 0.03 0.01 0.01 0.00 0.00 0.00 0.00 0.00 0.00 0.00 0.00 0.00 0.00 0.00 0.00 0.00
0.15 0.11 0.18 0.38 0.38 0.38 0.34 0.34 0.16 0.09 0.06 0.06 0.03 0.02 0.01 0.01 0.01 0.02 0.04 0.02 0.02 0.04 0.02 0.00 0.01 0.00 0.06 0.06 0.02 0.01 0.00 0.00 0.00 0.00 0.00 0.00 0.00 0.00 0.00 0.00 0.00 0.00 0.00
0.11 0.12 0.16 0.32 0.29 0.32 0.33 0.32 0.27 0.12 0.06 0.04 0.03 0.02 0.01 0.01 0.00 0.00 0.02 0.01 0.01 0.01 0.02 0.01 0.00 0.00 0.00 0.01 0.01 0.02 0.00 0.00 0.00 0.00 0.00 0.00 0.00 0.00 0.01 0.00 0.00 0.00 0.00
0.03 0.04 0.11 0.17 0.18 0.23 0.29 0.31 0.26 0.18 0.10 0.08 0.06 0.04 0.02 0.00 0.00 0.00 0.00 0.00 0.00 0.01 0.01 0.02 0.00 0.00 0.00 0.00 0.02 0.02 0.02 0.02 0.01 0.01 0.04 0.05 0.02 0.01 0.00 0.00 0.00 0.00 0.00
0.01 0.02 0.03 0.09 0.13 0.17 0.17 0.19 0.22 0.19 0.12 0.05 0.04 0.03 0.02 0.01 0.00 0.00 0.00 0.00 0.00 0.00 0.01 0.03 0.03 0.01 0.00 0.00 0.03 0.03 0.03 0.05 0.08 0.11 0.14 0.08 0.05 0.05 0.05 0.04 0.01 0.01 0.00
0.01 0.02 0.02 0.02 0.05 0.08 0.12 0.06 0.05 0.09 0.12 0.08 0.04 0.05 0.01 0.00 0.00 0.00 0.00 0.01 0.02 0.02 0.02 0.03 0.03 0.02 0.02 0.04 0.06 0.07 0.08 0.04 0.05 0.04 0.04 0.04 0.04 0.05 0.05 0.05 0.03 0.04 0.02
0.02 0.02 0.03 0.04 0.05 0.04 0.08 0.03 0.06 0.07 0.08 0.11 0.04 0.03 0.02 0.00 0.00 0.00 0.00 0.02 0.07 0.08 0.06 0.05 0.06 0.09 0.07 0.07 0.06 0.03 0.03 0.03 0.05 0.05 0.05 0.05 0.07 0.08 0.09 0.09 0.16 0.08 0.04
0.01 0.01 0.01 0.01 0.01 0.01 0.05 0.03 0.06 0.06 0.07 0.05 0.03 0.02 0.04 0.03 0.04 0.00 0.01 0.03 0.03 0.03 0.03 0.02 0.02 0.07 0.11 0.14 0.19 0.23 0.29 0.31 0.26 0.21 0.20 0.20 0.17 0.14 0.09 0.08 0.07 0.03 0.01
0.01 0.01 0.02 0.03 0.03 0.05 0.06 0.04 0.05 0.03 0.04 0.04 0.03 0.03 0.02 0.03 0.06 0.04 0.02 0.02 0.04 0.09 0.13 0.20 0.29 0.38 0.37 0.34 0.35 0.33 0.29 0.26 0.25 0.20 0.13 0.11 0.06 0.04 0.03 0.02 0.04 0.02 0.00
0.03 0.02 0.02 0.02 0.03 0.03 0.06 0.05 0.03 0.01 0.02 0.04 0.04 0.05 0.05 0.02 0.13 0.09 0.07 0.15 0.23 0.29 0.30 0.27 0.21 0.15 0.10 0.08 0.07 0.05 0.05 0.06 0.05 0.02 0.00 0.00 0.00 0.00 0.00 0.00 0.00 0.00 0.00
0.04 0.04 0.03 0.02 0.04 0.02 0.05 0.04 0.04 0.03 0.06 0.08 0.08 0.08 0.14 0.06 0.11 0.08 0.05 0.05 0.11 0.15 0.13 0.14 0.14 0.14 0.09 0.05 0.03 0.00 0.00 0.00 0.00 0.00 0.00 0.00 0.00 0.00 0.00 0.00 0.00 0.00 0.00

GFSMA_prec_precacc6_102.txt.gz
Total_Precipitation_Accumulation
0.00 0.00 0.00 0.00 0.00 0.00 0.02 0.06 0.09 0.08 0.04 0.04 0.09 0.21 0.12 0.12 0.15 0.05 0.00 0.00 0.00 0.00 0.00 0.00 0.00 0.00 0.00 0.00 0.01 0.00 0.00 0.00 0.00 0.00 0.00 0.00 0.00 0.00 0.00 0.00 0.00 0.00 0.00
0.00 0.00 0.00 0.00 0.00 0.01 0.02 0.05 0.07 0.07 0.08 0.07 0.09 0.11 0.10 0.12 0.11 0.06 0.00 0.00 0.00 0.00 0.00 0.00 0.00 0.00 0.00 0.00 0.01 0.00 0.00 0.00 0.00 0.00 0.00 0.00 0.00 0.00 0.00 0.00 0.00 0.00 0.00
0.00 0.00 0.00 0.00 0.01 0.03 0.04 0.05 0.05 0.03 0.07 0.13 0.15 0.10 0.14 0.17 0.11 0.04 0.00 0.00 0.00 0.00 0.00 0.00 0.01 0.01 0.00 0.00 0.00 0.00 0.00 0.00 0.00 0.00 0.00 0.00 0.00 0.00 0.00 0.00 0.00 0.00 0.00
0.00 0.00 0.00 0.00 0.01 0.04 0.05 0.04 0.03 0.02 0.07 0.13 0.12 0.08 0.14 0.18 0.11 0.06 0.00 0.00 0.00 0.00 0.00 0.00 0.01 0.01 0.01 0.00 0.00 0.00 0.00 0.00 0.00 0.00 0.00 0.00 0.00 0.00 0.00 0.00 0.00 0.00 0.00
0.00 0.00 0.00 0.00 0.00 0.03 0.04 0.04 0.04 0.03 0.12 0.16 0.10 0.11 0.14 0.11 0.08 0.07 0.02 0.00 0.00 0.00 0.00 0.00 0.00 0.00 0.01 0.01 0.00 0.00 0.00 0.00 0.00 0.00 0.00 0.00 0.00 0.00 0.00 0.00 0.00 0.00 0.00
0.00 0.00 0.00 0.00 0.00 0.03 0.02 0.04 0.10 0.10 0.12 0.21 0.21 0.15 0.21 0.15 0.08 0.05 0.02 0.00 0.00 0.00 0.00 0.00 0.00 0.00 0.00 0.01 0.01 0.00 0.00 0.00 0.00 0.00 0.00 0.00 0.00 0.00 0.00 0.00 0.00 0.00 0.00
0.00 0.00 0.00 0.00 0.00 0.01 0.01 0.05 0.11 0.15 0.21 0.21 0.45 0.54 0.26 0.17 0.09 0.06 0.01 0.00 0.00 0.00 0.00 0.00 0.00 0.00 0.00 0.00 0.00 0.00 0.00 0.00 0.00 0.00 0.00 0.00 0.00 0.00 0.00 0.00 0.00 0.00 0.00
0.01 0.01 0.01 0.00 0.01 0.02 0.05 0.07 0.09 0.19 0.22 0.23 0.33 0.39 0.31 0.23 0.09 0.08 0.01 0.00 0.00 0.00 0.00 0.00 0.00 0.00 0.00 0.00 0.00 0.00 0.00 0.00 0.00 0.00 0.00 0.00 0.00 0.00 0.00 0.00 0.00 0.00 0.00
0.01 0.02 0.03 0.02 0.02 0.02 0.16 0.23 0.11 0.08 0.19 0.23 0.18 0.20 0.12 0.13 0.05 0.03 0.01 0.00 0.00 0.00 0.00 0.00 0.00 0.00 0.00 0.00 0.00 0.00 0.00 0.00 0.00 0.00 0.00 0.00 0.00 0.00 0.00 0.00 0.00 0.00 0.00
0.01 0.03 0.04 0.07 0.04 0.02 0.02 0.08 0.09 0.09 0.12 0.18 0.24 0.13 0.03 0.00 0.01 0.01 0.01 0.01 0.00 0.00 0.00 0.00 0.00 0.00 0.00 0.00 0.00 0.00 0.00 0.00 0.00 0.00 0.00 0.00 0.00 0.00 0.00 0.00 0.00 0.00 0.00
0.04 0.08 0.04 0.05 0.04 0.03 0.03 0.02 0.02 0.06 0.11 0.09 0.11 0.07 0.03 0.00 0.00 0.00 0.02 0.00 0.00 0.00 0.00 0.00 0.00 0.00 0.00 0.00 0.00 0.00 0.00 0.00 0.00 0.00 0.00 0.00 0.00 0.00 0.00 0.00 0.00 0.00 0.00
0.02 0.03 0.07 0.05 0.04 0.02 0.02 0.03 0.04 0.07 0.07 0.08 0.07 0.05 0.03 0.00 0.00 0.00 0.00 0.00 0.00 0.00 0.00 0.00 0.00 0.00 0.00 0.00 0.00 0.00 0.00 0.00 0.00 0.00 0.00 0.00 0.00 0.00 0.00 0.00 0.00 0.00 0.00
0.00 0.01 0.03 0.02 0.02 0.02 0.02 0.04 0.09 0.09 0.10 0.09 0.07 0.05 0.01 0.00 0.00 0.00 0.00 0.00 0.00 0.00 0.00 0.00 0.00 0.00 0.00 0.00 0.00 0.00 0.00 0.00 0.00 0.00 0.00 0.00 0.00 0.00 0.00 0.00 0.00 0.00 0.00
0.01 0.00 0.00 0.01 0.02 0.03 0.08 0.11 0.09 0.12 0.10 0.11 0.09 0.08 0.05 0.01 0.00 0.00 0.00 0.00 0.00 0.00 0.00 0.00 0.00 0.00 0.00 0.00 0.00 0.00 0.00 0.00 0.00 0.00 0.00 0.00 0.00 0.00 0.00 0.00 0.00 0.00 0.00
0.02 0.01 0.00 0.01 0.03 0.06 0.14 0.23 0.22 0.16 0.11 0.14 0.13 0.13 0.10 0.04 0.01 0.02 0.02 0.00 0.00 0.00 0.00 0.00 0.00 0.00 0.00 0.00 0.00 0.00 0.00 0.00 0.00 0.00 0.00 0.00 0.00 0.00 0.00 0.00 0.00 0.00 0.00
0.01 0.00 0.00 0.02 0.08 0.17 0.23 0.29 0.36 0.32 0.25 0.21 0.16 0.18 0.19 0.09 0.05 0.02 0.03 0.01 0.00 0.00 0.00 0.00 0.01 0.01 0.01 0.02 0.01 0.04 0.03 0.02 0.01 0.00 0.01 0.00 0.00 0.00 0.00 0.00 0.00 0.00 0.00
0.00 0.00 0.00 0.01 0.11 0.16 0.31 0.40 0.42 0.38 0.38 0.32 0.28 0.25 0.19 0.14 0.06 0.04 0.03 0.02 0.00 0.00 0.00 0.00 0.00 0.00 0.01 0.02 0.03 0.04 0.06 0.02 0.00 0.02 0.04 0.03 0.03 0.02 0.01 0.00 0.00 0.00 0.00
0.00 0.00 0.00 0.02 0.08 0.16 0.19 0.36 0.44 0.42 0.32 0.37 0.32 0.24 0.21 0.16 0.11 0.04 0.03 0.02 0.01 0.00 0.00 0.00 0.00 0.00 0.01 0.04 0.03 0.03 0.03 0.03 0.01 0.02 0.03 0.03 0.01 0.01 0.00 0.00 0.00 0.00 0.00
0.00 0.00 0.00 0.01 0.03 0.14 0.27 0.31 0.44 0.35 0.30 0.25 0.27 0.23 0.20 0.15 0.12 0.05 0.04 0.03 0.03 0.02 0.00 0.01 0.01 0.01 0.01 0.02 0.02 0.01 0.00 0.00 0.00 0.01 0.01 0.00 0.00 0.00 0.00 0.00 0.00 0.01 0.02
0.00 0.00 0.00 0.02 0.05 0.10 0.31 0.47 0.43 0.49 0.38 0.30 0.28 0.31 0.28 0.18 0.12 0.06 0.06 0.05 0.04 0.04 0.01 0.01 0.00 0.01 0.01 0.00 0.00 0.00 0.00 0.00 0.00 0.02 0.01 0.02 0.02 0.02 0.02 0.05 0.10 0.11 0.09
0.00 0.00 0.00 0.01 0.07 0.16 0.25 0.40 0.45 0.48 0.40 0.36 0.31 0.32 0.31 0.31 0.26 0.15 0.08 0.06 0.06 0.05 0.02 0.00 0.00 0.01 0.00 0.00 0.00 0.00 0.00 0.00 0.01 0.02 0.04 0.06 0.08 0.09 0.12 0.13 0.09 0.05 0.04
0.01 0.01 0.02 0.03 0.02 0.07 0.22 0.24 0.38 0.51 0.45 0.37 0.38 0.34 0.40 0.40 0.30 0.24 0.13 0.05 0.05 0.04 0.02 0.01 0.01 0.01 0.00 0.00 0.01 0.01 0.02 0.02 0.05 0.05 0.07 0.09 0.08 0.07 0.06 0.05 0.07 0.04 0.01
0.04 0.04 0.05 0.05 0.03 0.03 0.17 0.16 0.24 0.33 0.63 0.48 0.46 0.40 0.37 0.28 0.26 0.20 0.13 0.07 0.04 0.03 0.02 0.02 0.01 0.00 0.01 0.01 0.02 0.04 0.06 0.07 0.09 0.11 0.15 0.16 0.14 0.12 0.09 0.07 0.06 0.02 0.01
0.09 0.09 0.08 0.07 0.08 0.08 0.07 0.12 0.25 0.17 0.25 0.31 0.29 0.31 0.24 0.20 0.25 0.19 0.11 0.10 0.07 0.04 0.03 0.03 0.03 0.04 0.04 0.05 0.07 0.08 0.09 0.09 0.10 0.09 0.09 0.10 0.07 0.05 0.03 0.02 0.03 0.01 0.00
0.04 0.06 0.09 0.08 0.08 0.07 0.08 0.07 0.10 0.05 0.13 0.20 0.17 0.21 0.25 0.22 0.28 0.29 0.20 0.19 0.15 0.09 0.11 0.10 0.09 0.12 0.12 0.09 0.07 0.06 0.06 0.07 0.09 0.09 0.07 0.07 0.05 0.02 0.01 0.00 0.00 0.00 0.00
0.05 0.04 0.04 0.04 0.08 0.04 0.09 0.09 0.09 0.02 0.05 0.07 0.09 0.14 0.23 0.21 0.27 0.19 0.13 0.10 0.11 0.14 0.13 0.12 0.12 0.11 0.10 0.09 0.10 0.07 0.06 0.06 0.06 0.05 0.03 0.02 0.02 0.00 0.00 0.00 0.00 0.00 0.00

GFSMA_prec_precacc6_105.txt.gz
Total_Precipitation_Accumulation
0.00 0.00 0.00 0.00 0.00 0.00 0.00 0.02 0.08 0.06 0.02 0.00 0.00 0.03 0.05 0.09 0.21 0.18 0.15 0.12 0.09 0.05 0.00 0.00 0.00 0.00 0.00 0.00 0.01 0.01 0.00 0.01 0.01 0.00 0.00 0.00 0.00 0.00 0.00 0.00 0.00 0.00 0.00
0.00 0.00 0.00 0.00 0.00 0.00 0.00 0.01 0.03 0.05 0.04 0.00 0.02 0.01 0.02 0.06 0.11 0.14 0.12 0.08 0.05 0.02 0.00 0.00 0.00 0.00 0.00 0.00 0.01 0.01 0.00 0.01 0.01 0.00 0.00 0.00 0.00 0.00 0.00 0.00 0.00 0.00 0.00
0.00 0.00 0.00 0.00 0.00 0.00 0.00 0.00 0.01 0.01 0.02 0.02 0.03 0.03 0.03 0.06 0.10 0.09 0.09 0.06 0.03 0.00 0.00 0.00 0.01 0.01 0.01 0.01 0.01 0.01 0.01 0.01 0.01 0.01 0.00 0.00 0.00 0.00 0.00 0.00 0.00 0.00 0.00
0.00 0.00 0.00 0.00 0.00 0.00 0.00 0.01 0.01 0.02 0.02 0.02 0.03 0.04 0.04 0.07 0.12 0.12 0.08 0.04 0.01 0.00 0.00 0.00 0.01 0.01 0.01 0.01 0.01 0.01 0.01 0.01 0.01 0.01 0.01 0.00 0.00 0.00 0.00 0.00 0.00 0.00 0.00
0.00 0.00 0.00 0.00 0.00 0.00 0.00 0.00 0.02 0.02 0.02 0.02 0.03 0.08 0.08 0.06 0.10 0.14 0.10 0.04 0.01 0.00 0.00 0.00 0.00 0.00 0.01 0.01 0.01 0.01 0.01 0.01 0.01 0.01 0.00 0.00 0.00 0.00 0.00 0.00 0.00 0.00 0.00
0.00 0.00 0.00 0.00 0.00 0.00 0.00 0.01 0.03 0.02 0.03 0.05 0.13 0.13 0.17 0.11 0.10 0.10 0.10 0.08 0.01 0.00 0.00 0.00 0.00 0.00 0.00 0.01 0.01 0.01 0.01 0.01 0.00 0.00 0.01 0.00 0.00 0.00 0.00 0.00 0.00 0.00 0.00
0.00 0.00 0.00 0.00 0.00 0.00 0.00 0.01 0.02 0.02 0.06 0.10 0.32 0.50 0.33 0.29 0.15 0.13 0.09 0.09 0.03 0.00 0.00 0.00 0.00 0.00 0.00 0.00 0.01 0.01 0.01 0.01 0.01 0.00 0.01 0.00 0.00 0.00 0.00 0.00 0.00 0.00 0.00
0.01 0.01 0.00 0.00 0.00 0.01 0.01 0.01 0.02 0.03 0.04 0.11 0.29 0.36 0.57 0.59 0.38 0.23 0.21 0.10 0.04 0.00 0.00 0.00 0.00 0.00 0.00 0.00 0.00 0.00 0.01 0.01 0.00 0.00 0.00 0.00 0.00 0.00 0.00 0.00 0.00 0.00 0.00
0.02 0.02 0.03 0.02 0.02 0.02 0.01 0.01 0.02 0.02 0.05 0.08 0.15 0.22 0.25 0.30 0.15 0.17 0.19 0.13 0.05 0.00 0.00 0.00 0.00 0.00 0.00 0.00 0.00 0.00 0.00 0.00 0.01 0.00 0.00 0.00 0.00 0.00 0.00 0.00 0.00 0.00 0.00
0.03 0.03 0.06 0.08 0.05 0.02 0.01 0.01 0.01 0.02 0.03 0.06 0.14 0.14 0.09 0.06 0.07 0.09 0.09 0.14 0.06 0.00 0.00 0.00 0.00 0.00 0.00 0.00 0.00 0.00 0.00 0.00 0.00 0.00 0.00 0.00 0.00 0.00 0.00 0.00 0.00 0.00 0.00
0.04 0.08 0.05 0.06 0.07 0.03 0.03 0.03 0.01 0.02 0.02 0.03 0.05 0.09 0.10 0.08 0.06 0.05 0.09 0.09 0.06 0.00 0.00 0.00 0.00 0.00 0.00 0.00 0.00 0.00 0.00 0.00 0.00 0.00 0.00 0.01 0.01 0.00 0.00 0.00 0.00 0.00 0.00
0.02 0.03 0.07 0.06 0.06 0.04 0.03 0.03 0.02 0.01 0.01 0.03 0.04 0.05 0.04 0.01 0.01 0.01 0.02 0.03 0.04 0.03 0.00 0.00 0.00 0.00 0.00 0.00 0.00 0.00 0.00 0.00 0.00 0.00 0.00 0.00 0.00 0.01 0.00 0.00 0.00 0.00 0.00
0.00 0.01 0.04 0.03 0.03 0.04 0.04 0.03 0.04 0.03 0.02 0.02 0.02 0.03 0.02 0.01 0.00 0.00 0.02 0.04 0.02 0.02 0.01 0.00 0.00 0.00 0.00 0.00 0.00 0.00 0.00 0.00 0.00 0.00 0.00 0.00 0.00 0.00 0.00 0.00 0.00 0.00 0.00
0.01 0.00 0.00 0.01 0.01 0.03 0.04 0.04 0.05 0.04 0.04 0.05 0.04 0.05 0.03 0.02 0.01 0.01 0.01 0.02 0.02 0.00 0.00 0.00 0.00 0.00 0.00 0.00 0.00 0.00 0.00 0.00 0.00 0.00 0.00 0.00 0.00 0.00 0.00 0.00 0.00 0.00 0.00
0.02 0.00 0.00 0.00 0.01 0.01 0.02 0.04 0.06 0.07 0.06 0.06 0.09 0.10 0.08 0.03 0.01 0.01 0.00 0.00 0.00 0.00 0.00 0.00 0.00 0.00 0.00 0.00 0.00 0.00 0.00 0.00 0.00 0.00 0.00 0.00 0.00 0.00 0.00 0.00 0.00 0.00 0.00
0.01 0.00 0.00 0.01 0.01 0.01 0.02 0.08 0.14 0.18 0.18 0.17 0.11 0.12 0.17 0.13 0.05 0.02 0.02 0.01 0.00 0.00 0.00 0.00 0.00 0.00 0.00 0.00 0.00 0.00 0.00 0.01 0.00 0.00 0.01 0.00 0.00 0.01 0.00 0.00 0.00 0.00 0.00
0.01 0.01 0.02 0.02 0.01 0.02 0.05 0.17 0.26 0.30 0.31 0.25 0.24 0.23 0.18 0.16 0.10 0.05 0.03 0.04 0.01 0.00 0.00 0.00 0.00 0.00 0.00 0.01 0.02 0.02 0.03 0.02 0.01 0.03 0.04 0.03 0.03 0.01 0.01 0.01 0.00 0.00 0.00
0.01 0.03 0.01 0.01 0.01 0.02 0.07 0.16 0.28 0.37 0.34 0.38 0.33 0.27 0.28 0.26 0.20 0.13 0.08 0.04 0.02 0.00 0.01 0.01 0.00 0.00 0.01 0.04 0.04 0.03 0.04 0.04 0.06 0.06 0.04 0.03 0.01 0.00 0.00 0.00 0.00 0.00 0.00
0.01 0.02 0.00 0.00 0.00 0.02 0.09 0.14 0.28 0.28 0.34 0.39 0.39 0.33 0.29 0.24 0.25 0.20 0.13 0.09 0.05 0.05 0.01 0.01 0.01 0.01 0.01 0.02 0.03 0.02 0.03 0.04 0.03 0.03 0.01 0.00 0.00 0.00 0.00 0.00 0.00 0.00 0.00
0.00 0.00 0.00 0.00 0.01 0.02 0.11 0.17 0.19 0.32 0.31 0.35 0.41 0.38 0.34 0.30 0.21 0.17 0.15 0.15 0.12 0.10 0.07 0.03 0.03 0.04 0.03 0.03 0.03 0.03 0.03 0.04 0.03 0.01 0.00 0.00 0.00 0.00 0.00 0.01 0.01 0.02 0.02
0.00 0.00 0.00 0.00 0.02 0.08 0.12 0.21 0.30 0.34 0.45 0.41 0.38 0.47 0.39 0.39 0.43 0.31 0.22 0.20 0.20 0.17 0.11 0.08 0.06 0.05 0.04 0.03 0.02 0.01 0.02 0.03 0.01 0.00 0.00 0.00 0.01 0.01 0.03 0.04 0.05 0.04 0.04
0.01 0.00 0.00 0.00 0.00 0.04 0.13 0.21 0.37 0.61 0.61 0.56 0.52 0.44 0.48 0.48 0.56 0.60 0.38 0.25 0.19 0.19 0.18 0.12 0.09 0.05 0.02 0.02 0.02 0.02 0.01 0.01 0.01 0.02 0.03 0.05 0.05 0.06 0.05 0.05 0.09 0.06 0.04
0.02 0.02 0.01 0.01 0.01 0.01 0.13 0.15 0.22 0.37 0.67 0.57 0.60 0.61 0.52 0.46 0.47 0.48 0.45 0.32 0.24 0.16 0.14 0.14 0.14 0.07 0.03 0.02 0.02 0.02 0.02 0.01 0.02 0.04 0.09 0.13 0.14 0.13 0.12 0.11 0.13 0.07 0.04
0.06 0.05 0.02 0.02 0.03 0.05 0.07 0.10 0.18 0.21 0.29 0.47 0.50 0.53 0.56 0.51 0.45 0.42 0.40 0.38 0.28 0.17 0.11 0.07 0.05 0.05 0.05 0.03 0.03 0.02 0.02 0.03 0.05 0.07 0.10 0.12 0.10 0.10 0.10 0.09 0.15 0.06 0.01
0.03 0.05 0.07 0.06 0.06 0.06 0.08 0.07 0.09 0.09 0.20 0.31 0.38 0.46 0.52 0.58 0.55 0.51 0.38 0.35 0.30 0.22 0.20 0.17 0.12 0.11 0.11 0.10 0.09 0.07 0.05 0.05 0.07 0.08 0.10 0.15 0.14 0.13 0.11 0.08 0.06 0.04 0.00
0.05 0.02 0.02 0.03 0.07 0.04 0.11 0.09 0.06 0.01 0.05 0.13 0.23 0.27 0.36 0.41 0.47 0.41 0.37 0.33 0.29 0.30 0.24 0.19 0.15 0.10 0.08 0.08 0.11 0.09 0.10 0.10 0.09 0.09 0.09 0.10 0.10 0.09 0.09 0.06 0.04 0.02 0.00

GFSMA_prec_precacc6_108.txt.gz
Total_Precipitation_Accumulation
0.00 0.00 0.00 0.00 0.00 0.00 0.00 0.00 0.02 0.02 0.00 0.00 0.00 0.00 0.00 0.01 0.08 0.14 0.18 0.31 0.30 0.28 0.05 0.00 0.00 0.00 0.00 0.00 0.01 0.01 0.01 0.01 0.01 0.01 0.00 0.00 0.00 0.00 0.00 0.00 0.00 0.00 0.00
0.00 0.00 0.00 0.00 0.00 0.00 0.00 0.00 0.00 0.02 0.01 0.00 0.00 0.00 0.00 0.00 0.02 0.11 0.16 0.21 0.27 0.24 0.12 0.02 0.01 0.01 0.00 0.00 0.01 0.01 0.01 0.01 0.01 0.01 0.00 0.00 0.00 0.00 0.00 0.00 0.00 0.00 0.00
0.00 0.00 0.00 0.00 0.00 0.00 0.00 0.00 0.00 0.06 0.04 0.01 0.01 0.00 0.00 0.00 0.02 0.06 0.17 0.16 0.16 0.16 0.10 0.03 0.01 0.01 0.01 0.01 0.02 0.01 0.01 0.02 0.02 0.01 0.01 0.00 0.00 0.00 0.00 0.00 0.00 0.00 0.00
0.00 0.00 0.00 0.00 0.00 0.00 0.00 0.00 0.00 0.03 0.06 0.03 0.01 0.01 0.02 0.02 0.03 0.06 0.10 0.15 0.15 0.09 0.05 0.01 0.00 0.01 0.01 0.01 0.01 0.01 0.01 0.02 0.02 0.01 0.01 0.00 0.00 0.00 0.00 0.00 0.00 0.00 0.00
0.00 0.00 0.00 0.00 0.00 0.00 0.00 0.00 0.00 0.02 0.01 0.02 0.01 0.02 0.02 0.02 0.04 0.09 0.13 0.14 0.18 0.15 0.02 0.00 0.00 0.00 0.01 0.01 0.02 0.01 0.01 0.01 0.02 0.02 0.01 0.01 0.00 0.00 0.00 0.00 0.00 0.00 0.00
0.00 0.00 0.00 0.00 0.00 0.01 0.00 0.01 0.02 0.02 0.02 0.02 0.04 0.03 0.03 0.03 0.04 0.06 0.10 0.17 0.17 0.22 0.07 0.00 0.00 0.00 0.00 0.01 0.02 0.02 0.02 0.02 0.01 0.01 0.02 0.01 0.01 0.01 0.00 0.00 0.00 0.00 0.00
0.00 0.00 0.00 0.00 0.00 0.00 0.00 0.00 0.01 0.02 0.02 0.03 0.08 0.16 0.19 0.17 0.09 0.10 0.11 0.13 0.13 0.12 0.09 0.01 0.00 0.00 0.00 0.00 0.02 0.02 0.02 0.02 0.01 0.02 0.02 0.01 0.01 0.01 0.00 0.00 0.00 0.00 0.00
0.00 0.01 0.00 0.00 0.00 0.00 0.00 0.00 0.01 0.02 0.02 0.04 0.07 0.13 0.42 0.56 0.44 0.23 0.26 0.15 0.10 0.08 0.04 0.00 0.00 0.00 0.00 0.00 0.00 0.02 0.02 0.02 0.01 0.01 0.01 0.01 0.01 0.00 0.00 0.00 0.00 0.00 0.00
0.03 0.01 0.04 0.05 0.05 0.03 0.01 0.02 0.02 0.02 0.02 0.03 0.04 0.08 0.19 0.21 0.15 0.23 0.28 0.23 0.15 0.09 0.04 0.00 0.00 0.00 0.00 0.00 0.00 0.00 0.01 0.01 0.02 0.01 0.01 0.01 0.00 0.00 0.00 0.00 0.00 0.00 0.00
0.03 0.02 0.03 0.05 0.04 0.02 0.02 0.04 0.03 0.02 0.02 0.02 0.04 0.05 0.07 0.06 0.08 0.13 0.20 0.30 0.28 0.15 0.05 0.01 0.00 0.00 0.00 0.00 0.00 0.00 0.00 0.00 0.00 0.01 0.01 0.01 0.00 0.00 0.00 0.00 0.00 0.00 0.00
0.02 0.01 0.02 0.03 0.05 0.03 0.04 0.04 0.03 0.03 0.02 0.02 0.01 0.04 0.08 0.10 0.14 0.17 0.20 0.21 0.27 0.16 0.09 0.02 0.00 0.00 0.00 0.00 0.00 0.00 0.00 0.00 0.00 0.00 0.01 0.01 0.01 0.00 0.00 0.00 0.00 0.00 0.00
0.04 0.02 0.01 0.03 0.04 0.03 0.04 0.04 0.04 0.02 0.02 0.03 0.03 0.03 0.02 0.02 0.03 0.06 0.10 0.10 0.12 0.11 0.09 0.05 0.00 0.00 0.00 0.00 0.00 0.00 0.00 0.00 0.00 0.00 0.00 0.00 0.01 0.01 0.01 0.00 0.00 0.00 0.00
0.01 0.02 0.03 0.02 0.02 0.05 0.05 0.04 0.04 0.04 0.03 0.03 0.02 0.02 0.02 0.02 0.01 0.01 0.07 0.16 0.15 0.11 0.12 0.08 0.00 0.00 0.00 0.00 0.00 0.00 0.00 0.00 0.00 0.00 0.00 0.00 0.00 0.00 0.00 0.00 0.00 0.00 0.00
0.01 0.03 0.02 0.01 0.02 0.04 0.05 0.05 0.05 0.04 0.03 0.03 0.02 0.02 0.02 0.02 0.02 0.02 0.03 0.06 0.14 0.10 0.05 0.03 0.00 0.00 0.00 0.00 0.00 0.00 0.00 0.00 0.00 0.00 0.00 0.00 0.00 0.00 0.00 0.00 0.00 0.00 0.00
0.03 0.01 0.01 0.00 0.01 0.03 0.06 0.07 0.04 0.05 0.04 0.03 0.04 0.05 0.05 0.02 0.01 0.02 0.03 0.02 0.04 0.05 0.03 0.01 0.00 0.00 0.00 0.00 0.00 0.00 0.00 0.00 0.00 0.00 0.00 0.00 0.00 0.00 0.00 0.00 0.00 0.00 0.00
0.01 0.00 0.00 0.00 0.00 0.01 0.03 0.05 0.04 0.03 0.06 0.07 0.06 0.05 0.07 0.09 0.06 0.04 0.04 0.03 0.03 0.03 0.01 0.00 0.00 0.00 0.00 0.00 0.00 0.00 0.00 0.00 0.00 0.00 0.00 0.00 0.00 0.00 0.00 0.00 0.00 0.00 0.00
0.02 0.01 0.02 0.03 0.03 0.02 0.01 0.03 0.02 0.02 0.06 0.09 0.13 0.13 0.09 0.08 0.11 0.07 0.05 0.06 0.04 0.02 0.00 0.00 0.00 0.00 0.00 0.00 0.00 0.00 0.00 0.00 0.00 0.01 0.01 0.00 0.01 0.00 0.00 0.00 0.00 0.00 0.00
0.04 0.04 0.03 0.04 0.03 0.02 0.03 0.03 0.04 0.08 0.16 0.18 0.17 0.20 0.23 0.24 0.22 0.15 0.09 0.06 0.05 0.04 0.02 0.01 0.00 0.00 0.00 0.00 0.01 0.01 0.01 0.01 0.05 0.04 0.02 0.00 0.00 0.00 0.00 0.00 0.00 0.00 0.00
0.06 0.04 0.02 0.01 0.01 0.00 0.01 0.02 0.05 0.11 0.19 0.28 0.31 0.30 0.24 0.28 0.32 0.26 0.14 0.09 0.06 0.07 0.04 0.03 0.02 0.01 0.00 0.01 0.02 0.01 0.02 0.04 0.03 0.03 0.02 0.01 0.00 0.00 0.00 0.00 0.00 0.00 0.00
0.04 0.02 0.01 0.00 0.01 0.01 0.00 0.01 0.03 0.07 0.11 0.23 0.31 0.27 0.28 0.31 0.24 0.26 0.21 0.15 0.14 0.15 0.14 0.08 0.07 0.05 0.03 0.03 0.04 0.04 0.04 0.04 0.03 0.02 0.01 0.00 0.00 0.00 0.00 0.00 0.00 0.00 0.00
0.01 0.00 0.00 0.01 0.01 0.00 0.01 0.01 0.08 0.12 0.21 0.20 0.20 0.29 0.32 0.38 0.41 0.34 0.24 0.23 0.19 0.21 0.20 0.18 0.13 0.10 0.08 0.06 0.06 0.05 0.06 0.07 0.06 0.05 0.03 0.01 0.00 0.00 0.00 0.00 0.00 0.01 0.01
0.00 0.00 0.00 0.00 0.01 0.01 0.01 0.04 0.10 0.27 0.32 0.37 0.35 0.30 0.39 0.47 0.55 0.63 0.47 0.37 0.29 0.27 0.23 0.20 0.17 0.11 0.05 0.05 0.08 0.12 0.15 0.10 0.05 0.03 0.03 0.02 0.01 0.02 0.02 0.01 0.05 0.04 0.04
0.02 0.02 0.01 0.01 0.01 0.01 0.02 0.04 0.08 0.18 0.24 0.36 0.52 0.52 0.44 0.52 0.51 0.54 0.61 0.50 0.44 0.38 0.32 0.26 0.25 0.16 0.10 0.05 0.08 0.13 0.14 0.10 0.05 0.03 0.04 0.05 0.05 0.05 0.05 0.07 0.12 0.08 0.06
0.03 0.02 0.02 0.01 0.01 0.03 0.04 0.04 0.06 0.11 0.16 0.30 0.40 0.47 0.62 0.61 0.49 0.50 0.55 0.58 0.54 0.51 0.43 0.32 0.27 0.23 0.22 0.20 0.19 0.13 0.12 0.14 0.15 0.12 0.09 0.08 0.08 0.09 0.10 0.10 0.18 0.08 0.03
0.04 0.03 0.02 0.02 0.02 0.02 0.05 0.05 0.05 0.07 0.12 0.21 0.33 0.44 0.57 0.69 0.73 0.68 0.53 0.61 0.62 0.58 0.60 0.50 0.38 0.34 0.28 0.27 0.25 0.19 0.18 0.15 0.15 0.11 0.10 0.12 0.14 0.14 0.13 0.11 0.12 0.12 0.03
0.11 0.06 0.03 0.02 0.04 0.04 0.08 0.09 0.07 0.03 0.05 0.09 0.18 0.24 0.35 0.47 0.61 0.74 0.71 0.65 0.64 0.62 0.48 0.43 0.38 0.32 0.26 0.22 0.23 0.21 0.24 0.24 0.20 0.18 0.14 0.13 0.12 0.12 0.14 0.13 0.12 0.11 0.06

GFSMA_prec_precacc6_111.txt.gz
Total_Precipitation_Accumulation
0.00 0.00 0.00 0.00 0.00 0.00 0.00 0.00 0.00 0.00 0.00 0.00 0.00 0.00 0.00 0.00 0.01 0.01 0.08 0.38 0.39 0.45 0.24 0.02 0.01 0.00 0.00 0.00 0.00 0.00 0.00 0.01 0.00 0.01 0.00 0.01 0.01 0.00 0.00 0.00 0.00 0.00 0.00
0.00 0.00 0.00 0.00 0.00 0.00 0.00 0.00 0.00 0.00 0.01 0.00 0.00 0.00 0.02 0.00 0.00 0.03 0.05 0.20 0.44 0.50 0.40 0.14 0.02 0.01 0.00 0.00 0.00 0.01 0.01 0.01 0.01 0.01 0.01 0.01 0.01 0.01 0.00 0.00 0.00 0.00 0.00
0.00 0.00 0.00 0.00 0.00 0.00 0.00 0.00 0.00 0.05 0.03 0.01 0.01 0.00 0.00 0.00 0.00 0.01 0.09 0.11 0.18 0.36 0.41 0.40 0.11 0.02 0.01 0.00 0.01 0.01 0.01 0.02 0.01 0.01 0.01 0.01 0.00 0.00 0.00 0.01 0.00 0.00 0.00
0.00 0.00 0.00 0.00 0.00 0.00 0.00 0.00 0.00 0.02 0.05 0.02 0.01 0.01 0.00 0.01 0.01 0.00 0.02 0.13 0.22 0.19 0.24 0.36 0.17 0.02 0.01 0.01 0.01 0.01 0.01 0.02 0.02 0.02 0.01 0.01 0.01 0.01 0.00 0.00 0.00 0.00 0.00
0.00 0.00 0.00 0.00 0.00 0.00 0.00 0.00 0.00 0.01 0.01 0.02 0.00 0.00 0.00 0.01 0.02 0.03 0.05 0.13 0.24 0.32 0.20 0.20 0.11 0.03 0.00 0.01 0.01 0.02 0.01 0.02 0.02 0.02 0.01 0.01 0.01 0.01 0.01 0.00 0.00 0.00 0.00
0.00 0.00 0.00 0.00 0.00 0.01 0.00 0.00 0.00 0.01 0.01 0.02 0.01 0.01 0.01 0.02 0.02 0.02 0.04 0.13 0.24 0.43 0.39 0.17 0.07 0.01 0.00 0.01 0.01 0.02 0.01 0.02 0.02 0.02 0.02 0.02 0.01 0.01 0.00 0.00 0.00 0.00 0.00
0.00 0.00 0.01 0.00 0.00 0.00 0.01 0.00 0.00 0.01 0.02 0.02 0.02 0.02 0.03 0.03 0.03 0.03 0.04 0.08 0.16 0.21 0.45 0.41 0.12 0.01 0.00 0.00 0.01 0.02 0.02 0.02 0.02 0.02 0.02 0.02 0.02 0.01 0.01 0.00 0.00 0.00 0.00
0.00 0.01 0.00 0.01 0.00 0.00 0.00 0.00 0.00 0.02 0.02 0.03 0.03 0.03 0.06 0.17 0.15 0.09 0.06 0.07 0.10 0.14 0.12 0.32 0.29 0.07 0.00 0.00 0.00 0.02 0.02 0.03 0.02 0.02 0.02 0.01 0.01 0.00 0.00 0.00 0.00 0.00 0.00
0.02 0.00 0.03 0.04 0.04 0.03 0.01 0.02 0.01 0.01 0.02 0.03 0.03 0.03 0.04 0.03 0.05 0.09 0.11 0.11 0.11 0.10 0.07 0.07 0.10 0.05 0.01 0.00 0.00 0.00 0.01 0.02 0.03 0.02 0.02 0.01 0.01 0.00 0.00 0.00 0.01 0.00 0.00
0.02 0.00 0.00 0.02 0.03 0.01 0.02 0.04 0.04 0.02 0.02 0.02 0.04 0.03 0.01 0.01 0.02 0.06 0.12 0.18 0.26 0.21 0.10 0.09 0.06 0.03 0.00 0.00 0.00 0.00 0.00 0.01 0.01 0.02 0.01 0.01 0.00 0.00 0.00 0.00 0.00 0.00 0.00
0.03 0.04 0.01 0.02 0.02 0.02 0.02 0.03 0.03 0.04 0.02 0.01 0.01 0.02 0.02 0.03 0.08 0.13 0.13 0.14 0.27 0.25 0.19 0.10 0.11 0.08 0.00 0.00 0.00 0.00 0.00 0.00 0.00 0.01 0.01 0.01 0.01 0.00 0.01 0.00 0.00 0.00 0.00
0.10 0.08 0.06 0.07 0.05 0.02 0.01 0.03 0.04 0.03 0.03 0.02 0.02 0.01 0.01 0.02 0.02 0.05 0.08 0.10 0.14 0.17 0.17 0.18 0.10 0.07 0.00 0.00 0.00 0.00 0.00 0.00 0.00 0.00 0.00 0.01 0.01 0.01 0.01 0.00 0.01 0.00 0.00
0.03 0.03 0.04 0.04 0.03 0.04 0.03 0.03 0.03 0.03 0.03 0.02 0.02 0.01 0.02 0.01 0.01 0.01 0.06 0.14 0.19 0.16 0.18 0.15 0.13 0.06 0.01 0.00 0.00 0.00 0.00 0.00 0.00 0.00 0.00 0.00 0.00 0.01 0.01 0.00 0.00 0.00 0.00
0.05 0.06 0.08 0.14 0.09 0.08 0.05 0.05 0.04 0.04 0.03 0.03 0.02 0.02 0.02 0.02 0.02 0.02 0.03 0.05 0.15 0.14 0.08 0.05 0.04 0.04 0.01 0.00 0.00 0.00 0.00 0.00 0.00 0.00 0.00 0.00 0.00 0.00 0.00 0.00 0.00 0.00 0.00
0.07 0.06 0.09 0.09 0.06 0.04 0.08 0.08 0.05 0.05 0.04 0.04 0.04 0.03 0.03 0.02 0.02 0.02 0.03 0.03 0.05 0.08 0.06 0.02 0.01 0.01 0.00 0.00 0.00 0.00 0.00 0.00 0.00 0.00 0.00 0.00 0.00 0.00 0.00 0.00 0.00 0.00 0.00
0.01 0.02 0.04 0.03 0.04 0.04 0.05 0.07 0.06 0.05 0.04 0.05 0.04 0.04 0.03 0.02 0.04 0.04 0.03 0.03 0.05 0.07 0.06 0.01 0.02 0.01 0.01 0.01 0.00 0.00 0.00 0.00 0.00 0.00 0.00 0.00 0.00 0.00 0.00 0.00 0.00 0.00 0.00
0.03 0.01 0.01 0.02 0.04 0.03 0.02 0.04 0.04 0.04 0.03 0.04 0.04 0.04 0.03 0.03 0.06 0.06 0.04 0.04 0.05 0.05 0.05 0.01 0.01 0.02 0.03 0.02 0.01 0.00 0.00 0.00 0.00 0.00 0.00 0.00 0.00 0.00 0.00 0.00 0.00 0.00 0.00
0.07 0.05 0.05 0.04 0.04 0.03 0.03 0.02 0.04 0.05 0.05 0.04 0.02 0.05 0.08 0.11 0.11 0.07 0.05 0.05 0.05 0.06 0.06 0.04 0.02 0.02 0.02 0.01 0.00 0.00 0.00 0.00 0.00 0.00 0.00 0.00 0.00 0.00 0.00 0.00 0.00 0.00 0.00
0.17 0.17 0.14 0.08 0.03 0.01 0.01 0.01 0.02 0.03 0.04 0.05 0.07 0.11 0.12 0.18 0.19 0.12 0.09 0.07 0.06 0.05 0.07 0.11 0.10 0.06 0.02 0.00 0.00 0.00 0.00 0.00 0.00 0.00 0.01 0.01 0.00 0.00 0.00 0.00 0.00 0.00 0.00
0.17 0.16 0.11 0.06 0.02 0.01 0.01 0.01 0.00 0.00 0.00 0.01 0.03 0.08 0.16 0.19 0.18 0.19 0.17 0.10 0.11 0.14 0.13 0.11 0.12 0.12 0.09 0.03 0.02 0.02 0.01 0.00 0.00 0.01 0.01 0.00 0.00 0.00 0.00 0.00 0.00 0.00 0.00
0.09 0.08 0.06 0.04 0.03 0.01 0.01 0.01 0.00 0.00 0.00 0.01 0.02 0.05 0.15 0.23 0.22 0.20 0.17 0.17 0.14 0.18 0.24 0.24 0.21 0.13 0.12 0.09 0.05 0.04 0.04 0.04 0.05 0.05 0.03 0.01 0.00 0.00 0.00 0.00 0.00 0.00 0.00
0.10 0.11 0.09 0.05 0.03 0.02 0.03 0.01 0.01 0.00 0.01 0.06 0.10 0.11 0.19 0.27 0.24 0.29 0.27 0.26 0.24 0.20 0.18 0.18 0.20 0.18 0.10 0.08 0.10 0.16 0.18 0.11 0.05 0.03 0.03 0.04 0.03 0.03 0.03 0.02 0.03 0.02 0.01
0.15 0.13 0.08 0.03 0.03 0.02 0.03 0.02 0.03 0.01 0.02 0.10 0.20 0.20 0.18 0.26 0.33 0.36 0.49 0.55 0.56 0.50 0.34 0.24 0.21 0.17 0.13 0.09 0.10 0.19 0.22 0.16 0.10 0.04 0.08 0.11 0.11 0.12 0.12 0.11 0.12 0.06 0.04
0.15 0.06 0.04 0.03 0.03 0.03 0.03 0.02 0.04 0.01 0.01 0.04 0.07 0.13 0.24 0.26 0.26 0.36 0.45 0.55 0.62 0.70 0.67 0.52 0.39 0.34 0.31 0.31 0.35 0.28 0.23 0.27 0.31 0.27 0.21 0.18 0.17 0.17 0.16 0.14 0.16 0.06 0.03
0.06 0.04 0.02 0.02 0.01 0.02 0.03 0.02 0.03 0.01 0.01 0.03 0.06 0.12 0.24 0.31 0.45 0.53 0.52 0.59 0.61 0.62 0.74 0.70 0.59 0.54 0.49 0.49 0.50 0.41 0.36 0.34 0.36 0.28 0.21 0.20 0.20 0.20 0.19 0.16 0.14 0.14 0.05
0.15 0.10 0.06 0.03 0.04 0.03 0.05 0.06 0.08 0.03 0.03 0.02 0.02 0.06 0.15 0.22 0.37 0.53 0.53 0.54 0.61 0.68 0.67 0.72 0.72 0.63 0.64 0.60 0.58 0.53 0.50 0.45 0.37 0.35 0.25 0.20 0.20 0.18 0.20 0.18 0.16 0.14 0.08

GFSMA_prec_precacc6_114.txt.gz
Total_Precipitation_Accumulation
0.00 0.00 0.00 0.00 0.01 0.01 0.02 0.01 0.00 0.00 0.00 0.00 0.00 0.01 0.01 0.00 0.01 0.01 0.07 0.25 0.29 0.34 0.36 0.14 0.03 0.01 0.00 0.00 0.00 0.00 0.00 0.00 0.00 0.00 0.01 0.01 0.01 0.00 0.00 0.00 0.00 0.00 0.00
0.00 0.00 0.00 0.00 0.00 0.00 0.01 0.01 0.00 0.00 0.00 0.00 0.00 0.01 0.03 0.02 0.02 0.01 0.03 0.13 0.25 0.41 0.37 0.29 0.12 0.02 0.01 0.00 0.00 0.00 0.00 0.01 0.00 0.01 0.01 0.01 0.01 0.00 0.00 0.00 0.00 0.00 0.00
0.00 0.00 0.00 0.00 0.00 0.00 0.00 0.00 0.00 0.00 0.00 0.01 0.01 0.02 0.04 0.03 0.04 0.03 0.02 0.02 0.05 0.22 0.41 0.70 0.71 0.31 0.03 0.00 0.00 0.00 0.01 0.01 0.01 0.01 0.01 0.01 0.01 0.00 0.00 0.01 0.00 0.00 0.00
0.00 0.00 0.00 0.00 0.00 0.00 0.00 0.00 0.00 0.01 0.01 0.02 0.02 0.03 0.03 0.05 0.05 0.03 0.02 0.02 0.08 0.10 0.19 0.49 1.41 1.41 0.14 0.00 0.00 0.00 0.01 0.01 0.01 0.01 0.01 0.01 0.01 0.01 0.01 0.01 0.00 0.00 0.00
0.00 0.00 0.01 0.01 0.00 0.00 0.00 0.00 0.00 0.01 0.01 0.02 0.01 0.01 0.04 0.04 0.04 0.03 0.04 0.04 0.07 0.18 0.19 0.25 0.56 0.85 0.31 0.02 0.01 0.01 0.01 0.01 0.02 0.01 0.01 0.01 0.01 0.01 0.00 0.00 0.00 0.00 0.00
0.00 0.00 0.01 0.01 0.00 0.00 0.00 0.00 0.00 0.00 0.00 0.02 0.01 0.02 0.02 0.02 0.03 0.01 0.04 0.07 0.10 0.22 0.37 0.31 0.33 0.41 0.27 0.04 0.00 0.01 0.01 0.01 0.02 0.01 0.01 0.01 0.01 0.01 0.01 0.00 0.00 0.00 0.00
0.00 0.00 0.01 0.01 0.00 0.00 0.01 0.00 0.01 0.01 0.02 0.02 0.02 0.01 0.01 0.01 0.01 0.01 0.02 0.04 0.07 0.12 0.48 0.59 0.32 0.32 0.36 0.05 0.00 0.01 0.02 0.01 0.02 0.02 0.02 0.02 0.01 0.01 0.01 0.01 0.00 0.00 0.00
0.00 0.00 0.00 0.00 0.00 0.00 0.00 0.00 0.00 0.00 0.01 0.03 0.01 0.01 0.01 0.02 0.01 0.02 0.02 0.03 0.05 0.12 0.15 0.38 0.43 0.30 0.30 0.12 0.00 0.01 0.02 0.02 0.01 0.02 0.02 0.01 0.01 0.00 0.00 0.01 0.01 0.00 0.00
0.00 0.00 0.00 0.00 0.00 0.01 0.01 0.00 0.00 0.00 0.02 0.02 0.02 0.01 0.01 0.01 0.01 0.01 0.01 0.02 0.02 0.05 0.10 0.12 0.19 0.22 0.18 0.17 0.02 0.00 0.01 0.02 0.02 0.02 0.02 0.01 0.01 0.00 0.00 0.01 0.01 0.01 0.00
0.01 0.00 0.00 0.00 0.01 0.00 0.00 0.02 0.02 0.01 0.01 0.01 0.05 0.02 0.00 0.00 0.01 0.01 0.01 0.01 0.06 0.07 0.07 0.12 0.09 0.12 0.11 0.06 0.01 0.00 0.00 0.00 0.02 0.02 0.01 0.01 0.01 0.00 0.00 0.00 0.01 0.01 0.00
0.02 0.04 0.01 0.01 0.01 0.01 0.01 0.01 0.01 0.02 0.01 0.01 0.01 0.01 0.01 0.01 0.01 0.01 0.02 0.02 0.06 0.09 0.11 0.09 0.12 0.12 0.10 0.07 0.02 0.00 0.00 0.00 0.00 0.01 0.02 0.01 0.01 0.00 0.00 0.00 0.01 0.00 0.00
0.07 0.06 0.06 0.06 0.05 0.02 0.00 0.01 0.02 0.01 0.02 0.01 0.01 0.01 0.01 0.01 0.01 0.01 0.01 0.02 0.06 0.09 0.09 0.13 0.12 0.12 0.11 0.10 0.06 0.01 0.00 0.00 0.00 0.00 0.01 0.01 0.01 0.01 0.00 0.00 0.01 0.00 0.00
0.02 0.02 0.03 0.04 0.05 0.04 0.08 0.05 0.04 0.02 0.02 0.02 0.01 0.01 0.01 0.01 0.01 0.01 0.01 0.03 0.07 0.08 0.08 0.08 0.13 0.10 0.11 0.09 0.07 0.03 0.00 0.00 0.00 0.00 0.00 0.00 0.01 0.01 0.01 0.00 0.00 0.00 0.00
0.03 0.03 0.07 0.16 0.14 0.14 0.09 0.04 0.05 0.06 0.04 0.03 0.02 0.02 0.01 0.01 0.02 0.02 0.01 0.02 0.04 0.04 0.03 0.02 0.04 0.05 0.06 0.07 0.05 0.03 0.00 0.00 0.00 0.00 0.00 0.00 0.00 0.00 0.00 0.00 0.00 0.00 0.00
0.04 0.04 0.10 0.13 0.09 0.03 0.05 0.04 0.05 0.05 0.05 0.04 0.03 0.03 0.03 0.02 0.02 0.02 0.01 0.01 0.03 0.05 0.03 0.01 0.02 0.02 0.02 0.02 0.03 0.02 0.01 0.00 0.00 0.00 0.00 0.00 0.00 0.00 0.00 0.00 0.00 0.00 0.00
0.02 0.03 0.04 0.05 0.06 0.06 0.05 0.06 0.08 0.10 0.07 0.05 0.04 0.03 0.02 0.02 0.01 0.01 0.01 0.02 0.03 0.06 0.07 0.01 0.01 0.01 0.03 0.04 0.02 0.02 0.01 0.00 0.00 0.00 0.00 0.00 0.00 0.00 0.00 0.00 0.00 0.00 0.00
0.07 0.01 0.01 0.02 0.05 0.09 0.06 0.06 0.07 0.09 0.07 0.04 0.03 0.03 0.02 0.02 0.01 0.01 0.01 0.02 0.02 0.04 0.06 0.02 0.01 0.02 0.05 0.04 0.03 0.02 0.01 0.01 0.00 0.00 0.00 0.00 0.00 0.00 0.00 0.00 0.00 0.00 0.00
0.09 0.05 0.06 0.04 0.07 0.12 0.14 0.12 0.09 0.05 0.05 0.03 0.03 0.03 0.02 0.02 0.02 0.03 0.02 0.02 0.02 0.03 0.05 0.04 0.04 0.04 0.04 0.03 0.02 0.02 0.01 0.00 0.00 0.00 0.00 0.00 0.00 0.00 0.00 0.00 0.00 0.00 0.00
0.22 0.26 0.26 0.19 0.15 0.13 0.10 0.09 0.06 0.04 0.03 0.02 0.03 0.04 0.05 0.06 0.05 0.05 0.07 0.06 0.03 0.02 0.05 0.08 0.09 0.07 0.04 0.04 0.10 0.11 0.05 0.03 0.00 0.00 0.00 0.00 0.00 0.00 0.00 0.00 0.00 0.00 0.00
0.29 0.30 0.24 0.18 0.12 0.08 0.04 0.03 0.02 0.01 0.01 0.01 0.00 0.01 0.02 0.05 0.06 0.07 0.09 0.09 0.08 0.08 0.07 0.07 0.10 0.11 0.10 0.06 0.05 0.09 0.13 0.10 0.03 0.00 0.00 0.00 0.00 0.00 0.00 0.00 0.00 0.00 0.00
0.15 0.14 0.11 0.08 0.07 0.04 0.02 0.02 0.01 0.01 0.01 0.00 0.00 0.00 0.00 0.01 0.03 0.04 0.10 0.12 0.15 0.17 0.19 0.21 0.21 0.14 0.12 0.11 0.08 0.06 0.04 0.03 0.02 0.01 0.00 0.00 0.00 0.00 0.00 0.00 0.00 0.00 0.00
0.15 0.15 0.12 0.09 0.06 0.05 0.04 0.03 0.02 0.01 0.01 0.00 0.00 0.00 0.00 0.03 0.03 0.04 0.07 0.10 0.15 0.16 0.18 0.17 0.19 0.19 0.10 0.06 0.06 0.09 0.10 0.06 0.04 0.03 0.03 0.04 0.03 0.02 0.02 0.01 0.03 0.01 0.00
0.23 0.21 0.20 0.17 0.14 0.09 0.08 0.05 0.04 0.01 0.00 0.00 0.00 0.00 0.01 0.04 0.11 0.12 0.21 0.31 0.39 0.44 0.32 0.23 0.19 0.14 0.11 0.11 0.11 0.18 0.17 0.09 0.08 0.05 0.10 0.18 0.16 0.13 0.10 0.11 0.11 0.05 0.03
0.35 0.19 0.20 0.19 0.14 0.11 0.11 0.08 0.04 0.01 0.00 0.00 0.00 0.00 0.00 0.02 0.05 0.12 0.20 0.26 0.34 0.39 0.45 0.47 0.40 0.33 0.28 0.23 0.29 0.31 0.31 0.30 0.35 0.35 0.35 0.33 0.24 0.20 0.19 0.16 0.18 0.07 0.04
0.37 0.28 0.14 0.13 0.06 0.03 0.03 0.03 0.03 0.02 0.02 0.01 0.00 0.00 0.00 0.02 0.09 0.15 0.22 0.24 0.28 0.32 0.42 0.55 0.67 0.59 0.55 0.58 0.59 0.57 0.68 0.53 0.56 0.47 0.43 0.41 0.33 0.29 0.26 0.22 0.17 0.15 0.08
0.36 0.30 0.19 0.13 0.12 0.08 0.11 0.09 0.06 0.02 0.04 0.03 0.02 0.01 0.03 0.02 0.04 0.07 0.10 0.15 0.21 0.33 0.41 0.52 0.63 0.65 0.76 0.85 0.92 0.82 0.65 0.51 0.47 0.52 0.44 0.43 0.44 0.36 0.35 0.29 0.20 0.15 0.10

GFSMA_prec_precacc6_117.txt.gz
Total_Precipitation_Accumulation
0.00 0.00 0.00 0.00 0.01 0.02 0.04 0.02 0.00 0.00 0.00 0.00 0.01 0.03 0.02 0.00 0.00 0.01 0.06 0.09 0.11 0.13 0.21 0.17 0.05 0.03 0.00 0.00 0.00 0.00 0.00 0.00 0.00 0.00 0.00 0.00 0.00 0.00 0.00 0.00 0.00 0.00 0.00
0.00 0.00 0.00 0.00 0.00 0.00 0.01 0.02 0.01 0.01 0.00 0.01 0.01 0.01 0.03 0.03 0.03 0.01 0.03 0.13 0.04 0.13 0.11 0.29 0.21 0.07 0.04 0.04 0.00 0.00 0.00 0.00 0.00 0.00 0.00 0.00 0.00 0.00 0.00 0.00 0.00 0.00 0.00
0.00 0.00 0.00 0.00 0.00 0.00 0.01 0.01 0.01 0.01 0.02 0.02 0.02 0.03 0.05 0.05 0.05 0.04 0.02 0.02 0.03 0.01 0.11 0.41 0.80 0.72 0.62 0.32 0.08 0.01 0.00 0.01 0.01 0.00 0.00 0.01 0.00 0.00 0.00 0.00 0.00 0.00 0.00
0.00 0.00 0.00 0.00 0.00 0.00 0.01 0.01 0.01 0.01 0.01 0.01 0.02 0.03 0.04 0.05 0.04 0.04 0.02 0.01 0.02 0.01 0.02 0.18 1.30 2.05 1.67 0.78 0.28 0.10 0.00 0.01 0.01 0.01 0.01 0.01 0.00 0.00 0.00 0.00 0.00 0.00 0.00
0.00 0.00 0.00 0.00 0.00 0.00 0.00 0.01 0.00 0.01 0.02 0.01 0.01 0.02 0.04 0.04 0.04 0.03 0.05 0.05 0.03 0.01 0.02 0.06 0.47 0.95 0.69 0.46 0.17 0.02 0.00 0.01 0.01 0.01 0.01 0.01 0.00 0.00 0.00 0.01 0.00 0.00 0.00
0.00 0.00 0.00 0.01 0.01 0.00 0.00 0.01 0.01 0.01 0.01 0.01 0.01 0.02 0.03 0.03 0.03 0.01 0.03 0.05 0.03 0.05 0.10 0.17 0.31 0.45 0.45 0.38 0.27 0.06 0.01 0.01 0.01 0.01 0.01 0.01 0.01 0.00 0.00 0.01 0.00 0.00 0.00
0.00 0.00 0.00 0.01 0.01 0.01 0.01 0.01 0.01 0.01 0.01 0.02 0.03 0.02 0.02 0.02 0.01 0.00 0.01 0.01 0.01 0.04 0.15 0.21 0.22 0.36 0.50 0.31 0.21 0.20 0.02 0.01 0.02 0.01 0.01 0.01 0.01 0.01 0.00 0.01 0.00 0.00 0.00
0.00 0.00 0.00 0.00 0.00 0.01 0.01 0.01 0.00 0.01 0.01 0.03 0.01 0.01 0.02 0.02 0.01 0.01 0.01 0.01 0.01 0.06 0.08 0.06 0.15 0.25 0.44 0.58 0.19 0.10 0.04 0.02 0.01 0.02 0.01 0.01 0.01 0.00 0.00 0.00 0.01 0.00 0.00
0.00 0.00 0.00 0.00 0.01 0.01 0.01 0.00 0.01 0.00 0.03 0.03 0.02 0.00 0.01 0.01 0.01 0.00 0.01 0.01 0.02 0.05 0.07 0.07 0.10 0.18 0.23 0.43 0.54 0.12 0.01 0.01 0.01 0.01 0.01 0.01 0.00 0.00 0.00 0.01 0.01 0.00 0.00
0.00 0.00 0.00 0.00 0.01 0.01 0.01 0.00 0.00 0.00 0.01 0.00 0.03 0.01 0.00 0.00 0.01 0.01 0.01 0.01 0.01 0.03 0.02 0.04 0.04 0.09 0.13 0.12 0.25 0.35 0.08 0.00 0.01 0.01 0.01 0.00 0.00 0.00 0.00 0.00 0.01 0.01 0.00
0.01 0.00 0.00 0.00 0.01 0.01 0.01 0.01 0.00 0.00 0.00 0.01 0.00 0.01 0.01 0.01 0.01 0.01 0.03 0.02 0.01 0.00 0.01 0.01 0.02 0.04 0.10 0.09 0.06 0.08 0.07 0.02 0.00 0.01 0.01 0.01 0.00 0.00 0.00 0.00 0.01 0.01 0.01
0.01 0.00 0.01 0.01 0.02 0.01 0.01 0.01 0.02 0.01 0.00 0.00 0.01 0.01 0.01 0.00 0.01 0.01 0.01 0.01 0.01 0.01 0.01 0.01 0.03 0.05 0.11 0.10 0.09 0.05 0.03 0.02 0.00 0.00 0.00 0.01 0.00 0.00 0.00 0.00 0.01 0.01 0.00
0.01 0.01 0.01 0.01 0.02 0.02 0.07 0.05 0.04 0.02 0.02 0.00 0.01 0.02 0.02 0.01 0.01 0.02 0.02 0.02 0.02 0.02 0.03 0.01 0.01 0.05 0.10 0.10 0.09 0.08 0.06 0.04 0.01 0.00 0.00 0.00 0.01 0.00 0.00 0.00 0.00 0.00 0.00
0.01 0.00 0.02 0.03 0.07 0.08 0.08 0.03 0.04 0.07 0.05 0.01 0.01 0.02 0.03 0.03 0.04 0.02 0.03 0.03 0.03 0.01 0.02 0.01 0.01 0.01 0.05 0.08 0.07 0.08 0.05 0.06 0.04 0.00 0.00 0.00 0.00 0.00 0.00 0.00 0.00 0.00 0.00
0.04 0.02 0.02 0.06 0.05 0.02 0.04 0.03 0.03 0.04 0.05 0.02 0.01 0.02 0.03 0.03 0.06 0.06 0.05 0.05 0.05 0.04 0.02 0.00 0.01 0.01 0.02 0.02 0.04 0.04 0.04 0.03 0.03 0.01 0.00 0.00 0.00 0.00 0.00 0.00 0.00 0.00 0.00
0.11 0.06 0.02 0.03 0.04 0.06 0.07 0.06 0.08 0.09 0.08 0.04 0.02 0.01 0.02 0.04 0.04 0.05 0.05 0.05 0.05 0.05 0.04 0.02 0.00 0.01 0.03 0.03 0.02 0.03 0.02 0.04 0.02 0.01 0.00 0.00 0.00 0.00 0.00 0.00 0.00 0.00 0.00
0.22 0.12 0.06 0.02 0.03 0.09 0.07 0.08 0.07 0.11 0.12 0.04 0.04 0.03 0.01 0.02 0.01 0.03 0.04 0.03 0.02 0.03 0.03 0.01 0.01 0.01 0.04 0.03 0.03 0.03 0.02 0.04 0.01 0.01 0.00 0.00 0.00 0.00 0.00 0.00 0.00 0.00 0.00
0.28 0.17 0.17 0.11 0.07 0.13 0.16 0.15 0.11 0.11 0.16 0.12 0.09 0.10 0.05 0.04 0.03 0.03 0.05 0.03 0.02 0.03 0.03 0.01 0.02 0.02 0.02 0.03 0.02 0.02 0.02 0.03 0.02 0.03 0.01 0.00 0.00 0.00 0.00 0.00 0.00 0.00 0.00
0.39 0.36 0.41 0.37 0.26 0.22 0.21 0.21 0.17 0.17 0.18 0.18 0.10 0.09 0.06 0.08 0.08 0.09 0.10 0.08 0.06 0.03 0.04 0.03 0.01 0.02 0.02 0.04 0.10 0.12 0.06 0.07 0.06 0.07 0.05 0.01 0.00 0.00 0.00 0.00 0.00 0.00 0.00
0.36 0.39 0.30 0.22 0.17 0.12 0.06 0.07 0.08 0.09 0.07 0.07 0.05 0.07 0.07 0.05 0.03 0.04 0.04 0.05 0.05 0.05 0.03 0.04 0.03 0.02 0.03 0.04 0.05 0.10 0.16 0.18 0.19 0.13 0.07 0.02 0.01 0.00 0.00 0.00 0.00 0.00 0.00
0.28 0.27 0.23 0.21 0.17 0.11 0.11 0.09 0.07 0.07 0.06 0.06 0.04 0.03 0.03 0.02 0.01 0.01 0.02 0.04 0.07 0.08 0.08 0.10 0.10 0.08 0.05 0.06 0.08 0.06 0.06 0.08 0.08 0.07 0.06 0.05 0.02 0.01 0.00 0.00 0.00 0.00 0.00
0.17 0.15 0.13 0.14 0.18 0.16 0.18 0.16 0.11 0.06 0.04 0.03 0.02 0.02 0.01 0.01 0.00 0.00 0.00 0.01 0.04 0.07 0.07 0.10 0.11 0.11 0.06 0.03 0.03 0.06 0.11 0.14 0.11 0.07 0.06 0.11 0.12 0.09 0.04 0.01 0.01 0.01 0.00
0.19 0.19 0.21 0.19 0.17 0.15 0.17 0.16 0.17 0.08 0.04 0.04 0.03 0.01 0.00 0.00 0.00 0.00 0.00 0.01 0.08 0.20 0.19 0.14 0.14 0.13 0.13 0.11 0.10 0.14 0.15 0.08 0.07 0.07 0.11 0.26 0.27 0.21 0.15 0.09 0.08 0.06 0.05
0.43 0.29 0.27 0.23 0.18 0.20 0.24 0.27 0.29 0.26 0.18 0.04 0.02 0.01 0.01 0.00 0.00 0.00 0.00 0.01 0.04 0.06 0.13 0.22 0.26 0.22 0.21 0.16 0.18 0.23 0.28 0.29 0.31 0.35 0.37 0.47 0.35 0.29 0.27 0.23 0.26 0.17 0.11
1.02 0.74 0.43 0.33 0.26 0.16 0.17 0.16 0.19 0.21 0.19 0.14 0.08 0.03 0.00 0.00 0.00 0.00 0.00 0.02 0.06 0.09 0.12 0.23 0.37 0.33 0.33 0.37 0.38 0.47 0.82 0.61 0.53 0.46 0.41 0.44 0.41 0.37 0.35 0.31 0.26 0.24 0.18
0.71 0.75 0.59 0.41 0.38 0.35 0.27 0.22 0.15 0.10 0.10 0.08 0.06 0.05 0.06 0.02 0.00 0.00 0.00 0.00 0.00 0.04 0.06 0.09 0.20 0.29 0.36 0.49 0.68 0.76 0.64 0.48 0.43 0.57 0.53 0.49 0.49 0.44 0.50 0.46 0.30 0.23 0.20

GFSMA_prec_precacc6_123.txt.gz
Total_Precipitation_Accumulation
0.00 0.00 0.00 0.00 0.00 0.01 0.01 0.02 0.00 0.00 0.00 0.01 0.04 0.08 0.03 0.00 0.02 0.02 0.08 0.03 0.01 0.02 0.01 0.00 0.05 0.16 0.18 0.14 0.11 0.08 0.01 0.00 0.00 0.00 0.00 0.00 0.00 0.00 0.00 0.00 0.00 0.00 0.00
0.00 0.00 0.00 0.00 0.00 0.00 0.00 0.01 0.01 0.00 0.00 0.01 0.02 0.02 0.04 0.00 0.02 0.02 0.01 0.01 0.00 0.01 0.01 0.01 0.03 0.14 0.20 0.15 0.08 0.05 0.02 0.00 0.00 0.00 0.00 0.00 0.00 0.00 0.00 0.00 0.00 0.00 0.00
0.00 0.00 0.00 0.00 0.00 0.00 0.00 0.01 0.02 0.01 0.01 0.02 0.03 0.02 0.00 0.00 0.02 0.03 0.01 0.01 0.01 0.00 0.02 0.01 0.05 0.14 0.20 0.51 0.32 0.16 0.11 0.04 0.00 0.00 0.00 0.00 0.00 0.00 0.00 0.00 0.00 0.00 0.00
0.00 0.00 0.00 0.00 0.00 0.00 0.00 0.01 0.01 0.01 0.01 0.01 0.02 0.02 0.00 0.00 0.01 0.00 0.00 0.01 0.01 0.01 0.01 0.01 0.03 0.02 0.03 0.24 0.31 0.29 0.20 0.09 0.04 0.01 0.00 0.00 0.00 0.00 0.00 0.00 0.00 0.00 0.00
0.10 0.03 0.00 0.00 0.00 0.00 0.00 0.00 0.01 0.01 0.01 0.01 0.01 0.02 0.01 0.00 0.00 0.00 0.00 0.00 0.01 0.00 0.01 0.00 0.02 0.00 0.00 0.02 0.08 0.15 0.12 0.05 0.03 0.02 0.01 0.01 0.00 0.00 0.00 0.00 0.00 0.00 0.00
0.16 0.15 0.05 0.02 0.01 0.01 0.00 0.00 0.00 0.01 0.01 0.01 0.01 0.01 0.01 0.01 0.01 0.00 0.00 0.00 0.00 0.00 0.00 0.00 0.00 0.00 0.00 0.01 0.07 0.10 0.07 0.03 0.01 0.01 0.01 0.01 0.01 0.00 0.00 0.00 0.00 0.01 0.00
0.22 0.13 0.07 0.05 0.04 0.02 0.00 0.01 0.00 0.00 0.01 0.02 0.03 0.03 0.02 0.02 0.01 0.00 0.00 0.00 0.00 0.01 0.00 0.00 0.00 0.00 0.00 0.00 0.01 0.09 0.17 0.16 0.08 0.03 0.01 0.00 0.00 0.00 0.00 0.00 0.00 0.00 0.00
0.11 0.19 0.16 0.09 0.04 0.03 0.02 0.00 0.01 0.01 0.01 0.01 0.01 0.02 0.03 0.02 0.01 0.00 0.01 0.00 0.00 0.01 0.01 0.00 0.01 0.00 0.00 0.00 0.00 0.03 0.15 0.20 0.20 0.10 0.02 0.00 0.00 0.00 0.00 0.00 0.00 0.00 0.01
0.13 0.15 0.13 0.13 0.08 0.03 0.01 0.00 0.01 0.01 0.04 0.03 0.02 0.01 0.01 0.00 0.00 0.00 0.00 0.00 0.00 0.00 0.01 0.00 0.00 0.00 0.00 0.00 0.00 0.02 0.03 0.11 0.16 0.14 0.06 0.00 0.00 0.00 0.00 0.00 0.00 0.01 0.00
0.18 0.24 0.23 0.18 0.22 0.10 0.04 0.01 0.03 0.07 0.07 0.01 0.04 0.01 0.01 0.00 0.00 0.03 0.02 0.00 0.00 0.00 0.00 0.00 0.00 0.00 0.00 0.00 0.00 0.03 0.07 0.02 0.02 0.10 0.09 0.02 0.00 0.00 0.00 0.00 0.00 0.00 0.00
0.12 0.30 0.37 0.39 0.41 0.56 0.25 0.24 0.07 0.08 0.04 0.01 0.00 0.01 0.00 0.01 0.01 0.06 0.07 0.05 0.03 0.00 0.00 0.00 0.00 0.00 0.00 0.00 0.00 0.01 0.05 0.05 0.01 0.01 0.03 0.03 0.00 0.00 0.00 0.00 0.00 0.00 0.00
0.04 0.08 0.12 0.21 0.27 0.38 0.45 0.56 0.65 0.36 0.29 0.16 0.05 0.01 0.00 0.00 0.00 0.02 0.07 0.07 0.06 0.01 0.00 0.00 0.00 0.00 0.00 0.00 0.00 0.00 0.01 0.03 0.03 0.01 0.00 0.01 0.01 0.00 0.00 0.00 0.00 0.00 0.00
0.06 0.02 0.12 0.13 0.11 0.09 0.20 0.41 0.62 0.66 0.76 0.34 0.10 0.05 0.02 0.01 0.00 0.08 0.12 0.09 0.09 0.04 0.08 0.02 0.00 0.00 0.00 0.00 0.00 0.00 0.00 0.00 0.02 0.01 0.00 0.00 0.00 0.01 0.00 0.00 0.00 0.00 0.00
0.04 0.06 0.07 0.08 0.10 0.17 0.25 0.30 0.36 0.30 0.30 0.30 0.18 0.09 0.05 0.04 0.02 0.02 0.05 0.16 0.16 0.09 0.14 0.03 0.01 0.00 0.00 0.00 0.00 0.00 0.00 0.00 0.02 0.03 0.01 0.00 0.00 0.00 0.00 0.00 0.00 0.00 0.00
0.05 0.09 0.10 0.11 0.15 0.16 0.22 0.25 0.26 0.24 0.20 0.23 0.18 0.18 0.08 0.02 0.02 0.02 0.09 0.13 0.16 0.08 0.05 0.03 0.04 0.00 0.00 0.00 0.00 0.00 0.00 0.00 0.01 0.04 0.04 0.02 0.01 0.01 0.01 0.00 0.00 0.00 0.00
0.02 0.16 0.26 0.25 0.26 0.24 0.26 0.32 0.30 0.24 0.21 0.16 0.13 0.08 0.04 0.02 0.05 0.06 0.07 0.11 0.15 0.12 0.05 0.04 0.08 0.05 0.02 0.01 0.01 0.00 0.00 0.00 0.00 0.03 0.05 0.07 0.04 0.03 0.03 0.04 0.03 0.01 0.00
0.04 0.07 0.19 0.47 0.36 0.43 0.43 0.34 0.38 0.31 0.24 0.19 0.14 0.05 0.03 0.04 0.05 0.10 0.21 0.21 0.19 0.19 0.13 0.05 0.15 0.19 0.08 0.01 0.01 0.01 0.00 0.00 0.00 0.00 0.02 0.05 0.08 0.09 0.08 0.07 0.06 0.03 0.00
0.16 0.20 0.24 0.27 0.27 0.20 0.31 0.24 0.16 0.20 0.19 0.12 0.07 0.07 0.03 0.03 0.07 0.09 0.29 0.36 0.28 0.27 0.24 0.10 0.09 0.14 0.12 0.04 0.02 0.01 0.00 0.00 0.00 0.00 0.01 0.01 0.02 0.02 0.06 0.12 0.17 0.13 0.03
0.39 0.46 0.54 0.61 0.51 0.28 0.22 0.23 0.19 0.11 0.05 0.08 0.07 0.13 0.10 0.08 0.11 0.10 0.13 0.29 0.27 0.21 0.17 0.13 0.06 0.09 0.09 0.04 0.04 0.02 0.00 0.00 0.00 0.01 0.01 0.01 0.02 0.02 0.02 0.03 0.04 0.05 0.05
0.26 0.34 0.36 0.38 0.38 0.38 0.29 0.22 0.30 0.35 0.29 0.31 0.26 0.29 0.31 0.28 0.25 0.15 0.09 0.06 0.09 0.09 0.05 0.05 0.06 0.02 0.04 0.03 0.05 0.03 0.03 0.01 0.00 0.00 0.00 0.01 0.03 0.04 0.05 0.07 0.07 0.05 0.03
0.33 0.27 0.20 0.37 0.40 0.42 0.45 0.35 0.41 0.53 0.46 0.36 0.31 0.24 0.20 0.20 0.17 0.16 0.16 0.14 0.08 0.04 0.03 0.03 0.02 0.01 0.01 0.01 0.01 0.01 0.01 0.01 0.01 0.01 0.01 0.01 0.02 0.04 0.06 0.06 0.08 0.11 0.09
0.37 0.53 0.32 0.34 0.52 0.61 0.83 0.88 0.64 0.46 0.36 0.34 0.30 0.28 0.20 0.19 0.14 0.14 0.11 0.08 0.05 0.03 0.01 0.01 0.01 0.01 0.01 0.01 0.01 0.01 0.02 0.06 0.07 0.02 0.01 0.02 0.04 0.09 0.10 0.11 0.15 0.17 0.16
0.37 0.35 0.42 0.39 0.40 0.47 0.66 0.82 0.85 0.63 0.45 0.38 0.28 0.22 0.20 0.16 0.20 0.18 0.21 0.18 0.16 0.12 0.08 0.06 0.02 0.01 0.00 0.01 0.04 0.04 0.04 0.08 0.07 0.04 0.05 0.09 0.07 0.09 0.12 0.16 0.26 0.24 0.24
0.29 0.20 0.25 0.30 0.29 0.52 0.44 0.80 0.95 0.83 0.52 0.45 0.39 0.35 0.31 0.23 0.18 0.15 0.11 0.11 0.15 0.19 0.16 0.11 0.04 0.02 0.01 0.00 0.01 0.03 0.05 0.09 0.11 0.07 0.07 0.10 0.10 0.12 0.14 0.16 0.27 0.26 0.29
0.49 0.57 0.46 0.48 0.59 0.59 0.45 0.40 0.50 0.65 0.86 0.88 0.72 0.58 0.52 0.47 0.42 0.34 0.31 0.27 0.20 0.12 0.09 0.07 0.04 0.02 0.01 0.00 0.00 0.00 0.02 0.10 0.09 0.05 0.05 0.08 0.11 0.16 0.19 0.21 0.21 0.27 0.29
0.35 0.37 0.52 0.57 0.55 0.63 0.73 0.66 0.54 0.42 0.39 0.48 0.58 0.58 0.52 0.44 0.31 0.21 0.16 0.18 0.17 0.14 0.08 0.05 0.04 0.03 0.01 0.01 0.01 0.00 0.00 0.03 0.04 0.05 0.04 0.09 0.14 0.15 0.22 0.22 0.21 0.22 0.25